When you browse on this site, cookies collect data to enhance your experience and personalize the content and advertising you see.
Visit our Privacy Policy to learn more. By continuing to use the site, you agree to this use of cookies and data.
EN

Hourly Weather Pivdenne

Today, 9 July, Thursday

Time Temperature Precipitation Wind Pressure Humidity
00:00 +15°C° 0 mm 6 mps 755 mmHg 76%
01:00 +15°C° 0 mm 5 mps 755 mmHg 79%
02:00 +14°C° 0 mm 5 mps 755 mmHg 83%
03:00 +14°C° 0 mm 5 mps 756 mmHg 81%
04:00 +14°C° 0 mm 5 mps 756 mmHg 79%
05:00 +15°C° 0 mm 5 mps 756 mmHg 77%
06:00 +16°C° 0 mm 5 mps 756 mmHg 70%
07:00 +19°C° 0 mm 5 mps 756 mmHg 63%
08:00 +21°C° 0 mm 5 mps 757 mmHg 55%
09:00 +22°C° 0 mm 5 mps 757 mmHg 51%
10:00 +23°C° 0 mm 5 mps 757 mmHg 46%
11:00 +25°C° 0 mm 5 mps 757 mmHg 42%
12:00 +26°C° 0 mm 5 mps 757 mmHg 40%
13:00 +26°C° 0 mm 5 mps 757 mmHg 38%
14:00 +27°C° 0 mm 5 mps 757 mmHg 36%
15:00 +26°C° 0 mm 5 mps 757 mmHg 38%
16:00 +26°C° 0 mm 5 mps 757 mmHg 40%
17:00 +26°C° 0 mm 5 mps 757 mmHg 41%
18:00 +23°C° 0 mm 4 mps 757 mmHg 48%
19:00 +22°C° 0 mm 4 mps 758 mmHg 54%
20:00 +20°C° 0 mm 4 mps 758 mmHg 61%
21:00 +19°C° 0 mm 4 mps 758 mmHg 62%
22:00 +19°C° 0 mm 4 mps 758 mmHg 63%
23:00 +18°C° 0 mm 3 mps 759 mmHg 64%

Tomorrow, 10 July, Friday

Time Temperature Precipitation Wind Pressure Humidity
00:00 +18°C° 0 mm 3 mps 759 mmHg 68%
01:00 +17°C° 0 mm 3 mps 759 mmHg 73%
02:00 +17°C° 0 mm 3 mps 759 mmHg 77%
03:00 +17°C° 0 mm 3 mps 759 mmHg 78%
04:00 +17°C° 0 mm 3 mps 759 mmHg 79%
05:00 +17°C° 0 mm 2 mps 760 mmHg 80%
06:00 +19°C° 0 mm 2 mps 760 mmHg 72%
07:00 +20°C° 0 mm 2 mps 760 mmHg 64%
08:00 +23°C° 0 mm 2 mps 760 mmHg 57%
09:00 +24°C° 0 mm 2 mps 760 mmHg 53%
10:00 +25°C° 0 mm 2 mps 760 mmHg 49%
11:00 +26°C° 0 mm 2 mps 760 mmHg 45%
12:00 +27°C° 0 mm 2 mps 760 mmHg 43%
13:00 +27°C° 0 mm 2 mps 759 mmHg 41%
14:00 +28°C° 0 mm 2 mps 759 mmHg 39%
15:00 +28°C° 0 mm 2 mps 759 mmHg 39%
16:00 +28°C° 0 mm 3 mps 759 mmHg 39%
17:00 +28°C° 0 mm 3 mps 759 mmHg 39%
18:00 +26°C° 0 mm 3 mps 759 mmHg 45%
19:00 +25°C° 0 mm 3 mps 759 mmHg 50%
20:00 +22°C° 0 mm 3 mps 759 mmHg 55%
21:00 +21°C° 0 mm 3 mps 759 mmHg 56%
22:00 +21°C° 0 mm 3 mps 759 mmHg 57%
23:00 +20°C° 0 mm 3 mps 759 mmHg 58%

Day after tomorrow, 11 July, Saturday

Time Temperature Precipitation Wind Pressure Humidity
00:00 +20°C° 0 mm 3 mps 759 mmHg 59%
01:00 +19°C° 0 mm 3 mps 759 mmHg 59%
02:00 +19°C° 0 mm 3 mps 759 mmHg 60%
03:00 +19°C° 0 mm 3 mps 759 mmHg 61%
04:00 +19°C° 0 mm 3 mps 759 mmHg 63%
05:00 +18°C° 0 mm 3 mps 759 mmHg 64%
06:00 +20°C° 0 mm 3 mps 759 mmHg 59%
07:00 +22°C° 0 mm 4 mps 759 mmHg 54%
08:00 +25°C° 0 mm 4 mps 759 mmHg 50%
09:00 +26°C° 0 mm 4 mps 759 mmHg 46%
10:00 +27°C° 0 mm 5 mps 759 mmHg 42%
11:00 +29°C° 0 mm 5 mps 759 mmHg 38%
12:00 +29°C° 0 mm 5 mps 758 mmHg 36%
13:00 +30°C° 0 mm 5 mps 758 mmHg 35%
14:00 +30°C° 0 mm 5 mps 757 mmHg 33%
15:00 +30°C° 0 mm 5 mps 757 mmHg 35%
16:00 +30°C° 0 mm 5 mps 757 mmHg 37%
17:00 +29°C° 0 mm 5 mps 756 mmHg 38%
18:00 +28°C° 0 mm 5 mps 756 mmHg 43%
19:00 +26°C° 0 mm 4 mps 756 mmHg 48%
20:00 +23°C° 0 mm 4 mps 756 mmHg 53%
21:00 +23°C° 0 mm 4 mps 756 mmHg 54%
22:00 +22°C° 0 mm 4 mps 756 mmHg 56%
23:00 +21°C° 0 mm 4 mps 756 mmHg 57%

12 July, Sunday

Time Temperature Precipitation Wind Pressure Humidity
00:00 +21°C° 0 mm 4 mps 756 mmHg 61%
01:00 +20°C° 0 mm 4 mps 756 mmHg 64%
02:00 +20°C° 0 mm 4 mps 755 mmHg 68%
03:00 +20°C° 0 mm 4 mps 755 mmHg 70%
04:00 +20°C° 0 mm 5 mps 755 mmHg 72%
05:00 +19°C° 0 mm 5 mps 755 mmHg 74%
06:00 +21°C° 0 mm 5 mps 755 mmHg 68%
07:00 +25°C° 0 mm 5 mps 755 mmHg 62%
08:00 +27°C° 0 mm 5 mps 754 mmHg 56%
09:00 +28°C° 0 mm 5 mps 754 mmHg 52%
10:00 +30°C° 0 mm 4 mps 754 mmHg 48%
11:00 +32°C° 0 mm 4 mps 754 mmHg 44%
12:00 +33°C° 0 mm 4 mps 753 mmHg 45%
13:00 +33°C° 0 mm 3 mps 753 mmHg 46%
14:00 +33°C° 0 mm 3 mps 753 mmHg 48%
15:00 +31°C° 2.2 mm 3 mps 752 mmHg 56%
16:00 +29°C° 2.2 mm 4 mps 752 mmHg 64%
17:00 +28°C° 2.2 mm 5 mps 751 mmHg 72%
18:00 +26°C° 5.1 mm 5 mps 751 mmHg 75%
19:00 +25°C° 5.1 mm 5 mps 751 mmHg 78%
20:00 +22°C° 5.1 mm 6 mps 752 mmHg 81%
21:00 +22°C° 0.6 mm 5 mps 752 mmHg 81%
22:00 +22°C° 0.6 mm 4 mps 751 mmHg 81%
23:00 +22°C° 0.6 mm 4 mps 751 mmHg 81%

13 July, Monday

Time Temperature Precipitation Wind Pressure Humidity
00:00 +22°C° 0.1 mm 3 mps 751 mmHg 83%
01:00 +22°C° 0.1 mm 3 mps 751 mmHg 86%
02:00 +23°C° 0.1 mm 2 mps 750 mmHg 88%
03:00 +21°C° 0 mm 2 mps 750 mmHg 89%
04:00 +21°C° 0 mm 2 mps 750 mmHg 89%
05:00 +21°C° 0 mm 3 mps 750 mmHg 89%
06:00 +24°C° 0 mm 2 mps 750 mmHg 82%
07:00 +25°C° 0 mm 2 mps 750 mmHg 75%
08:00 +27°C° 0 mm 1 mps 750 mmHg 69%
09:00 +28°C° 0 mm 1 mps 750 mmHg 63%
10:00 +30°C° 0 mm 2 mps 749 mmHg 58%
11:00 +31°C° 0 mm 2 mps 749 mmHg 52%
12:00 +33°C° 0 mm 3 mps 749 mmHg 50%
13:00 +33°C° 0 mm 3 mps 749 mmHg 47%
14:00 +34°C° 0 mm 3 mps 748 mmHg 45%
15:00 +33°C° 0.1 mm 4 mps 748 mmHg 47%
16:00 +33°C° 0.1 mm 5 mps 748 mmHg 49%
17:00 +32°C° 0.1 mm 5 mps 748 mmHg 51%
18:00 +29°C° 0.8 mm 5 mps 748 mmHg 60%
19:00 +26°C° 0.8 mm 5 mps 749 mmHg 70%
20:00 +23°C° 0.8 mm 5 mps 749 mmHg 80%
21:00 +22°C° 0 mm 6 mps 749 mmHg 81%
22:00 +22°C° 0 mm 6 mps 749 mmHg 82%
23:00 +21°C° 0 mm 6 mps 749 mmHg 83%

14 July, Tuesday

Time Temperature Precipitation Wind Pressure Humidity
00:00 +20°C° 0 mm 6 mps 749 mmHg 85%
01:00 +20°C° 0 mm 6 mps 749 mmHg 87%
02:00 +19°C° 0 mm 5 mps 749 mmHg 89%
03:00 +17°C° 0 mm 5 mps 749 mmHg 88%
04:00 +17°C° 0 mm 5 mps 750 mmHg 87%
05:00 +16°C° 0 mm 6 mps 750 mmHg 86%
06:00 +17°C° 0.1 mm 5 mps 750 mmHg 82%
07:00 +19°C° 0.1 mm 5 mps 750 mmHg 79%
08:00 +20°C° 0.1 mm 5 mps 751 mmHg 75%
09:00 +21°C° 0 mm 5 mps 751 mmHg 67%
10:00 +23°C° 0 mm 5 mps 751 mmHg 59%
11:00 +25°C° 0 mm 5 mps 751 mmHg 51%
12:00 +26°C° 0 mm 6 mps 751 mmHg 47%
13:00 +26°C° 0 mm 6 mps 751 mmHg 44%
14:00 +26°C° 0 mm 6 mps 751 mmHg 40%
15:00 +26°C° 0 mm 6 mps 751 mmHg 41%
16:00 +26°C° 0 mm 6 mps 751 mmHg 41%
17:00 +24°C° 0 mm 6 mps 751 mmHg 42%
18:00 +23°C° 0 mm 6 mps 752 mmHg 46%
19:00 +21°C° 0 mm 5 mps 752 mmHg 50%
20:00 +20°C° 0 mm 5 mps 752 mmHg 55%
21:00 +19°C° 0 mm 5 mps 752 mmHg 57%
22:00 +17°C° 0 mm 5 mps 753 mmHg 60%
23:00 +17°C° 0 mm 5 mps 753 mmHg 63%
Show more